Location: Newark
(33.6333°S, 78.8500°W)
Time: 06:40:17
(UTC+00:00)

Courier 1B - Pass Details

Date: 27 September 2019
Orbit: 962 x 1209 km, 28.3° (Epoch: 18 October)

Event Time Altitude Azimuth Distance (km) Brightness Sun altitude
Rises 20:49:43 0° 291° (WNW) 4,109 12.0 29.0°
Reaches altitude 10° 20:52:39 10° 295° (WNW) 3,147 11.9 28.4°
Maximum altitude 21:00:16 54° 9° (N) 1,431 8.8 26.9°
Drops below altitude 10° 21:07:41 10° 84° (E) 3,068 9.7 25.4°
Sets 21:10:30 0° 88° (E) 3,999 10.2 24.8°
